Theta_e
325 327 332 330 335 335 336 335 334 336 336 332 336 336 338 338 338 346 339 337 337 338 327 326 331 334 332 328 318 325 330 326 322 320 320 317 315 312 316 324 329 332 332 331 329 329 326 325 324
326 330 329 333 336 336 334 333 333 333 333 331 335 336 337 340 339 340 339 337 337 336 331 328 328 332 333 331 319 316 321 324 322 320 318 316 315 313 316 321 322 325 329 329 329 324 323 322 320
327 328 332 334 336 337 334 332 332 332 332 332 335 337 337 340 339 339 339 337 336 335 334 329 327 327 333 331 329 322 318 316 315 316 314 313 313 314 315 316 319 323 322 321 321 322 320 320 318
328 328 330 334 334 335 333 331 332 333 330 332 334 337 338 339 338 339 338 337 336 335 334 328 328 326 326 326 332 329 323 316 314 314 314 313 312 311 312 312 319 325 316 317 317 319 319 320 317
327 330 332 333 334 333 331 330 332 331 330 330 333 336 339 339 339 338 338 338 337 335 334 328 328 327 326 326 329 331 329 322 322 321 319 317 315 313 312 313 317 317 312 311 312 313 313 315 314
329 330 331 334 334 333 331 331 330 329 328 330 330 335 339 339 340 338 338 338 337 337 333 329 328 326 326 326 327 330 331 328 329 327 324 324 320 317 314 312 313 313 313 312 311 310 312 313 315
330 331 330 332 334 334 332 330 329 329 329 327 332 336 338 339 340 339 338 337 337 338 336 331 328 326 325 324 324 325 328 330 329 329 327 325 323 320 317 315 314 313 313 313 312 312 311 311 312
327 332 329 330 334 334 331 330 330 332 331 331 333 333 337 339 340 339 338 337 336 336 337 337 335 328 328 328 327 326 325 325 325 324 324 324 324 324 323 320 316 314 314 314 314 315 314 314 314
323 332 331 332 333 333 330 331 331 331 331 330 332 332 335 339 339 338 337 336 336 336 336 337 338 338 337 334 329 329 329 329 329 328 327 326 326 333 326 324 323 322 321 321 321 322 322 323 323
325 332 331 329 331 333 330 330 331 331 329 330 331 333 337 339 338 338 337 336 336 337 338 338 338 338 336 336 332 329 331 327 330 332 334 330 334 332 331 330 324 324 324 324 324 324 324 324 328
324 331 329 328 328 330 330 331 331 332 331 329 331 333 338 339 338 337 337 337 337 337 337 336 336 336 336 335 335 334 335 330 333 332 329 332 331 334 329 332 329 325 325 325 328 330 329 328 329
325 325 326 326 325 329 330 331 332 331 331 330 330 333 338 338 337 337 337 337 337 336 336 336 336 335 334 334 330 333 332 329 330 329 322 325 327 328 328 329 331 332 329 331 331 329 328 327 327
323 324 325 324 324 329 330 331 332 332 329 331 332 334 337 337 337 336 336 336 336 336 336 336 334 332 331 326 332 331 329 322 327 330 327 321 328 329 331 331 331 330 329 328 326 325 325 325 326
320 323 325 325 325 325 329 330 330 332 330 331 333 333 335 335 335 335 335 335 335 336 336 336 333 328 330 323 326 331 328 331 326 330 330 326 324 328 330 330 329 329 327 327 328 328 326 324 324
319 321 325 325 325 325 328 329 330 330 329 332 334 333 333 334 334 334 334 334 335 335 335 335 335 330 329 325 324 325 329 326 329 328 322 316 326 328 328 328 325 327 326 325 325 324 324 324 323
320 320 322 324 325 323 326 334 330 327 329 331 333 333 333 333 333 334 333 333 334 335 335 335 333 330 330 330 330 331 330 326 320 319 316 314 314 316 326 328 327 327 328 327 325 325 324 323 323
321 324 324 320 321 324 327 332 329 325 328 330 332 333 333 332 333 333 333 333 333 334 334 334 334 328 328 329 332 333 331 324 319 317 315 313 313 314 322 327 328 329 329 328 326 326 326 324 322
323 323 320 322 317 321 326 328 322 322 325 329 330 331 332 332 332 332 332 333 333 333 333 334 334 330 327 329 329 329 324 321 319 315 313 313 312 313 313 322 324 326 327 327 327 325 326 324 323
320 323 323 320 315 316 321 323 325 321 321 324 327 327 329 330 330 331 331 332 333 333 333 332 331 329 329 330 329 328 324 321 319 316 314 314 312 312 312 314 322 326 325 326 327 325 323 324 323
320 320 321 317 313 315 317 318 318 320 321 321 323 323 324 324 325 326 328 330 330 330 328 328 328 328 329 330 330 328 324 321 319 317 315 314 312 312 312 313 321 326 326 326 325 323 322 322 321
319 321 320 317 313 313 315 317 318 318 317 317 317 317 318 319 319 319 321 323 324 326 326 327 327 328 329 329 329 329 324 321 320 318 315 314 312 312 313 314 319 323 324 325 324 323 322 321 322
318 315 315 314 316 319 314 321 321 321 319 316 315 316 317 317 317 317 317 317 318 317 318 321 322 323 323 324 326 326 324 320 319 317 316 313 312 312 313 315 316 319 322 326 324 323 321 319 319
319 315 315 315 316 318 317 317 319 319 317 316 316 314 314 313 313 313 312 313 313 313 314 313 313 314 315 315 316 320 321 318 318 317 314 312 312 312 314 318 320 323 326 325 324 322 320 317 315
314 315 316 316 317 319 317 317 319 318 314 314 313 309 309 310 310 310 309 309 309 309 309 309 310 310 312 313 315 317 318 317 317 315 313 312 312 313 315 318 322 324 326 325 323 320 314 310 308
315 315 318 317 317 318 311 315 317 313 312 311 311 310 309 310 310 310 310 310 311 311 311 312 312 310 309 311 313 315 317 316 315 313 313 313 313 313 315 318 321 324 324 323 318 310 307 305 304
314 313 316 317 316 314 310 310 311 311 311 310 310 310 310 311 311 311 311 311 310 310 310 311 312 310 309 310 311 314 315 314 313 313 313 313 313 314 316 320 322 322 320 314 307 305 304 303 303
312 313 309 310 308 311 311 310 311 312 311 311 311 310 311 311 312 312 312 312 312 311 311 312 312 311 309 310 311 313 313 313 312 312 313 313 314 315 318 320 320 316 310 306 305 304 303 303 302
312 310 308 312 313 307 306 308 308 311 310 310 311 311 311 310 311 310 310 311 312 312 312 312 312 311 310 310 311 312 312 312 312 312 313 313 315 316 318 316 313 308 305 305 304 303 303 303 303
312 311 311 310 311 310 308 309 311 311 311 311 311 310 310 310 311 310 310 310 311 312 312 312 312 311 311 311 311 312 312 312 311 312 313 314 315 315 314 311 308 305 304 304 303 303 303 302 302
311 310 310 309 312 308 310 309 310 310 310 311 310 310 309 309 311 310 310 310 310 310 310 312 312 312 312 312 312 311 311 311 311 311 311 312 312 311 310 308 306 304 304 303 302 302 302 301 301
Wind_Speed
2 6 7 4 6 6 3 6 4 7 8 5 8 0 6 11 8 4 17 14 18 16 14 13 12 9 8 8 9 11 7 7 6 6 4 3 2 4 7 10 9 9 7 4 4 5 5 6 7
3 7 5 8 8 7 7 8 8 10 8 7 7 3 2 6 7 15 17 16 18 16 14 12 12 10 7 7 8 10 8 5 5 4 3 1 1 5 8 8 8 7 6 4 5 4 4 5 6
7 7 8 5 10 6 5 10 11 8 10 9 6 2 3 5 9 17 13 20 17 15 14 13 12 11 9 7 7 7 6 4 4 4 2 3 3 6 6 6 4 5 4 2 2 2 3 4 4
2 4 6 8 9 3 3 9 13 13 7 5 3 6 6 3 15 10 21 19 17 15 13 13 11 10 9 8 7 7 6 5 6 5 5 5 4 5 5 6 5 2 2 2 1 1 2 3 6
5 8 9 12 3 2 2 11 15 11 11 10 8 5 8 13 11 18 20 17 16 15 13 12 11 9 8 9 8 5 5 5 6 5 5 5 5 4 4 5 6 2 4 3 1 1 2 3 4
11 9 9 12 9 5 6 12 12 8 8 9 6 11 9 11 16 19 18 16 14 14 13 12 11 10 8 8 8 7 6 4 3 3 4 3 3 3 3 3 3 2 0 1 1 1 2 4 5
12 9 14 14 11 9 8 14 12 10 9 8 8 11 9 13 17 19 17 15 14 13 13 12 11 10 9 9 8 7 6 5 3 2 2 1 1 1 1 1 1 1 1 1 1 1 1 3 5
5 7 17 15 12 10 14 17 10 8 9 7 10 6 10 18 19 19 17 15 14 12 11 11 11 10 9 8 7 6 6 5 4 4 3 3 2 2 1 1 1 2 2 2 2 3 3 4 5
3 6 11 14 13 10 17 16 11 3 7 7 8 2 13 22 20 19 19 16 15 13 12 12 11 10 8 5 6 5 4 4 4 4 4 4 3 5 4 5 4 4 3 3 4 4 5 6 6
6 11 17 9 9 11 22 16 15 9 12 8 8 6 17 24 21 21 20 19 17 14 13 12 11 11 10 9 7 5 4 4 3 4 4 3 4 7 7 9 6 7 7 7 6 7 7 7 5
1 8 3 3 2 8 20 14 14 11 11 11 14 14 22 23 21 20 18 18 17 15 13 13 11 11 10 9 8 5 6 4 5 6 4 5 6 7 6 6 8 8 8 7 8 8 8 4 8
5 2 2 1 1 10 18 14 10 13 6 7 10 17 22 23 21 20 18 18 18 17 15 14 13 13 12 10 8 7 7 6 5 5 5 6 5 6 4 6 7 9 9 7 9 7 7 7 8
2 2 3 3 4 8 10 14 10 13 4 7 10 17 21 20 18 17 16 16 17 17 17 15 14 13 12 10 9 8 7 6 6 6 7 7 6 8 7 7 6 6 6 7 8 8 9 9 9
5 1 4 4 6 5 10 7 3 12 6 9 12 16 18 19 18 17 17 17 18 16 16 15 15 14 12 11 10 9 9 8 8 8 8 9 9 9 10 10 11 10 10 8 9 9 12 13 13
6 3 6 6 4 3 6 6 10 7 8 9 12 13 15 16 16 17 17 17 17 16 15 16 16 16 15 14 13 12 11 11 10 10 11 12 12 12 12 16 15 14 14 12 12 13 14 15 16
5 1 6 7 4 3 3 13 14 6 11 11 11 13 15 16 16 16 16 17 17 17 17 16 18 18 17 16 14 14 13 14 14 14 14 15 16 16 15 16 18 12 13 16 14 14 15 13 15
5 6 6 5 4 2 8 9 13 6 9 14 13 13 15 15 16 18 19 19 20 19 18 18 18 21 20 19 17 16 17 17 17 16 17 18 19 20 19 18 17 16 15 15 16 14 13 14 14
4 1 3 4 5 2 6 11 4 6 8 12 14 15 15 16 18 17 18 19 19 19 20 20 20 23 24 24 24 24 24 22 21 19 19 19 21 22 21 20 19 19 18 17 16 15 12 13 14
15 8 5 6 7 4 11 12 9 7 6 9 12 13 14 17 15 17 17 19 20 22 24 24 24 27 27 28 27 28 28 25 25 23 22 21 22 22 21 21 19 18 20 18 15 13 14 11 13
10 11 15 6 2 4 7 12 13 13 13 13 14 14 15 17 18 18 19 20 24 25 27 29 31 30 31 31 30 29 27 26 27 27 25 23 23 22 21 20 18 16 18 18 18 16 13 11 10
12 16 12 2 5 2 7 15 16 15 18 18 16 18 19 22 23 22 21 22 22 23 27 27 31 31 32 32 32 33 33 33 30 29 28 25 22 21 20 19 18 17 18 16 17 16 13 12 10
13 5 7 5 2 9 2 7 14 15 12 12 17 21 26 27 25 24 22 21 19 24 26 29 30 32 33 33 34 34 34 33 31 28 29 24 22 22 20 19 19 21 20 20 18 16 15 14 11
6 9 10 5 4 5 7 6 11 14 12 12 20 23 21 17 14 16 16 17 20 24 27 33 34 33 34 34 32 34 35 33 24 30 26 24 23 22 20 19 18 19 20 19 17 16 15 14 12
14 15 9 4 2 5 12 9 7 12 11 15 9 4 3 4 6 9 12 14 17 17 21 25 29 31 32 34 33 34 33 32 33 30 26 24 23 22 20 19 19 19 20 19 17 16 15 13 13
8 12 4 3 5 6 4 9 13 6 8 9 9 3 4 7 9 10 13 13 14 17 17 20 24 28 29 32 32 31 31 30 30 27 24 24 23 21 20 20 19 19 19 18 17 16 14 13 13
14 13 4 6 7 2 2 7 4 3 9 8 7 9 9 7 5 8 10 12 15 19 21 21 22 22 25 28 28 29 29 28 28 25 23 23 22 21 20 20 19 19 18 17 16 15 15 14 13
9 9 1 4 2 1 7 7 11 12 11 7 7 5 6 4 5 8 10 12 13 15 17 19 20 19 22 22 23 26 25 25 24 23 23 24 23 22 21 21 20 19 18 18 17 17 16 15 14
5 10 3 2 4 5 6 8 9 6 7 6 3 1 4 3 7 9 11 13 16 17 18 18 18 19 19 20 21 21 22 22 22 23 24 24 23 22 22 22 22 21 20 20 19 18 17 17 16
6 7 4 3 3 3 4 5 7 5 5 1 5 6 6 5 6 9 13 16 17 17 17 17 17 16 16 17 19 20 21 22 23 24 25 25 24 24 25 25 24 24 23 22 21 20 20 19 19
12 10 11 3 4 5 3 4 5 8 8 8 6 7 9 5 4 8 14 18 19 20 16 16 16 15 16 17 19 21 23 23 24 25 26 27 27 28 28 28 27 26 24 23 23 22 22 22 21
Wind_Direction
289 159 163 223 236 237 132 160 120 146 145 110 142 237 35 31 9 54 140 143 146 147 152 140 146 144 120 104 136 137 139 153 155 154 155 144 119 120 141 154 151 123 110 100 96 85 66 47 36
170 166 192 259 258 216 154 137 174 164 108 145 147 152 178 86 70 128 145 148 146 149 144 147 148 150 137 112 122 141 166 159 159 169 173 145 85 132 138 147 166 183 167 117 90 65 43 28 22
161 180 245 231 243 263 133 167 155 123 147 157 142 330 85 78 121 139 155 149 149 149 147 150 143 146 156 137 127 129 129 154 169 163 163 150 136 122 141 139 112 170 187 160 63 31 12 7 2
150 213 248 245 213 58 42 157 138 147 155 195 181 134 98 100 134 152 143 149 151 151 155 150 147 148 156 154 144 134 111 124 133 128 116 99 101 135 140 162 124 113 178 201 218 268 328 1 45
216 231 231 226 209 89 153 135 155 167 158 171 195 126 118 134 136 143 145 149 157 153 162 156 151 148 149 152 150 134 120 119 122 115 103 88 79 97 135 146 153 141 106 131 129 266 270 292 353
234 230 223 219 181 146 149 156 161 165 154 143 186 132 131 154 146 151 150 153 158 159 163 162 158 154 150 147 149 151 148 144 142 117 113 86 76 72 84 150 177 207 255 30 10 4 286 297 309
244 212 230 222 168 175 161 166 169 153 158 167 148 147 139 153 156 153 153 158 157 161 161 166 165 160 154 151 152 157 162 158 148 162 149 77 75 66 62 67 125 223 206 233 297 349 343 311 319
268 251 234 232 173 189 160 171 181 177 150 132 165 176 168 164 160 157 157 161 161 168 168 171 171 169 166 162 164 167 173 183 193 212 234 241 240 251 253 254 224 242 243 267 301 318 317 328 325
247 237 217 216 199 152 161 170 173 157 148 175 175 137 149 158 157 161 163 165 170 174 176 179 191 178 187 198 187 190 199 209 223 234 240 253 270 292 283 270 277 276 274 277 284 299 314 316 318
247 221 215 230 222 159 174 178 161 168 163 176 173 150 153 158 162 169 173 173 177 181 184 186 190 189 191 190 220 207 237 230 264 283 274 274 231 234 239 261 268 268 271 278 289 295 300 307 335
256 242 52 79 27 230 176 181 172 186 187 187 186 163 163 165 170 176 182 183 181 184 189 187 192 195 199 201 200 210 223 228 230 236 240 257 252 268 275 263 285 270 273 278 291 309 315 300 278
219 43 333 137 277 186 171 170 187 193 122 176 181 170 169 172 180 182 187 189 186 184 190 191 192 192 198 198 203 209 208 215 224 243 255 261 276 277 257 270 266 255 259 248 247 253 256 276 289
316 94 81 81 125 166 166 180 186 195 111 142 159 167 175 181 184 189 191 192 192 190 191 195 193 198 201 203 209 208 216 239 237 240 261 264 255 265 262 254 242 259 269 280 287 294 290 296 295
351 16 119 100 136 150 181 175 167 194 146 153 166 174 180 189 191 190 195 198 198 195 195 197 203 205 210 216 215 221 228 231 248 249 254 268 260 255 257 253 251 256 253 253 265 272 294 309 312
298 204 161 114 113 117 186 196 208 152 177 163 178 181 185 196 197 202 203 206 207 207 202 205 210 215 217 225 227 231 236 242 247 259 271 272 264 262 256 266 269 263 265 266 262 273 282 290 301
347 241 171 112 145 97 200 212 203 171 196 190 185 187 193 200 205 206 210 214 214 215 213 213 217 221 227 229 235 236 238 249 260 266 276 283 279 274 263 254 269 270 265 267 265 271 272 287 292
346 184 199 127 53 59 212 228 130 181 208 205 197 201 206 208 213 213 213 214 217 218 219 219 225 232 234 240 239 241 245 251 257 266 274 283 282 279 267 253 250 251 250 261 265 264 263 278 292
207 211 312 222 45 256 221 255 120 206 225 217 213 214 216 222 224 227 225 224 225 225 226 226 228 234 238 242 246 248 254 258 257 263 270 281 283 282 273 257 246 250 250 252 256 265 272 286 301
164 188 220 302 35 322 245 253 231 178 222 223 225 225 225 231 235 238 237 234 234 232 232 234 235 243 245 247 252 251 253 256 253 257 267 281 287 282 271 259 255 244 248 252 249 256 274 279 272
219 184 189 176 78 292 270 263 246 244 239 239 238 237 240 247 245 243 240 237 239 242 246 243 245 247 251 253 255 253 254 251 252 255 264 278 289 281 270 260 250 242 242 240 246 260 263 269 272
201 207 212 207 149 238 291 271 259 238 238 238 242 247 251 252 254 252 248 253 248 247 249 248 252 252 253 254 250 252 249 251 255 256 262 274 282 278 267 255 244 239 236 238 244 250 259 262 256
193 189 125 117 248 239 272 267 248 239 217 226 244 243 245 248 253 257 257 255 251 256 252 256 257 258 255 254 253 252 252 252 257 257 258 272 276 272 263 251 242 236 235 235 240 251 257 264 252
218 151 131 120 219 304 208 267 256 253 250 254 247 244 252 254 261 267 267 259 258 253 253 261 261 258 258 257 255 250 248 247 236 251 257 268 270 264 256 249 239 233 231 235 244 253 257 258 253
132 110 92 119 338 271 240 229 240 227 219 240 247 17 275 281 283 284 284 276 269 269 270 269 266 262 255 252 250 246 246 245 247 250 258 265 263 257 250 245 237 233 233 238 247 255 252 250 251
156 163 133 161 189 239 355 215 245 301 303 269 280 257 278 287 285 284 277 277 283 283 282 277 272 266 258 250 246 244 242 241 246 249 256 261 260 252 245 240 235 232 234 239 244 244 246 248 251
190 187 165 211 209 202 111 232 245 260 271 278 272 267 279 287 297 311 307 298 289 282 275 282 280 272 259 255 251 248 245 242 245 250 255 257 252 245 240 234 231 231 235 236 239 244 248 250 254
176 210 15 82 31 302 197 255 273 241 267 259 264 262 261 261 320 329 335 332 322 308 293 288 285 280 265 258 250 246 245 245 249 253 253 250 246 242 235 232 233 234 235 239 243 247 249 254 258
201 153 137 215 196 233 236 247 251 182 226 230 194 17 12 317 345 353 348 335 326 321 314 306 295 284 271 258 253 251 249 250 252 252 250 246 242 237 234 235 234 234 238 242 246 248 251 254 255
170 177 213 194 249 258 279 257 27 46 38 51 80 65 35 12 8 16 13 1 343 322 312 306 299 289 276 260 251 250 251 252 251 249 246 242 239 236 236 236 236 238 241 243 245 248 251 254 255
228 207 200 207 207 244 341 265 93 82 76 67 45 353 338 334 353 353 343 337 334 322 310 302 294 285 279 264 255 253 254 252 253 250 244 241 238 237 237 238 239 241 244 246 247 249 250 251 253